| time (UTC) | temp F | wind direction | speed MPH | gust MPH | rain 1hr in | rain 24hr in | rain mn in | humidity % | barometer mb |
| 20260905093105 | 66 | 250 | 1.0 | 6.0 | 0.00 | 0.00 | 0.00 | 38 | 1021.9 |
| 20260905091608 | 66 | 0 | 0.0 | 2.0 | 0.00 | 0.00 | 0.00 | 39 | 1021.9 |
| 20260905090105 | 66 | 0 | 1.0 | 4.0 | 0.00 | 0.00 | 0.00 | 39 | 1021.9 |
| 20260905084619 | 66 | 233 | 0.0 | 3.0 | 0.00 | 0.00 | 0.00 | 39 | 1021.9 |
| 20260905083104 | 65 | 0 | 0.0 | 4.0 | 0.00 | 0.00 | 0.00 | 39 | 1021.9 |
| 20260905081604 | 66 | 0 | 0.0 | 4.0 | 0.00 | 0.00 | 0.00 | 37 | 1022.0 |
| 20260905080106 | 66 | 208 | 1.0 | 4.0 | 0.00 | 0.00 | 0.00 | 38 | 1022.1 |
| 20260905074606 | 66 | 255 | 0.0 | 2.0 | 0.00 | 0.00 | 0.00 | 38 | 1022.0 |
| 20260905073108 | 66 | 0 | 0.0 | 3.0 | 0.00 | 0.00 | 0.00 | 37 | 1022.0 |
| 20260905071608 | 67 | 0 | 0.0 | 3.0 | 0.00 | 0.00 | 0.00 | 37 | 1022.1 |
| 20260905070107 | 67 | 0 | 0.0 | 2.0 | 0.00 | 0.00 | 0.00 | 36 | 1022.1 |
| 20260905064602 | 68 | 0 | 0.0 | 4.0 | 0.00 | 0.00 | 0.00 | 35 | 1022.0 |
| 20260905063104 | 70 | 253 | 0.0 | 6.0 | 0.00 | 0.00 | 0.00 | 33 | 1022.0 |
| 20260905061611 | 70 | 226 | 2.0 | 7.0 | 0.00 | 0.00 | 0.00 | 32 | 1022.0 |
| 20260905060107 | 70 | 224 | 1.0 | 5.0 | 0.00 | 0.00 | 0.00 | 32 | 1021.9 |
| 20260905054604 | 70 | 0 | 0.0 | 5.0 | 0.00 | 0.00 | 0.00 | 32 | 1021.9 |
| 20260905053142 | 70 | 224 | 1.0 | 4.0 | 0.00 | 0.00 | 0.00 | 32 | 1022.1 |
| 20260905051604 | 70 | 223 | 1.0 | 5.0 | 0.00 | 0.00 | 0.00 | 32 | 1022.1 |
| 20260905050109 | 70 | 212 | 1.0 | 3.0 | 0.00 | 0.00 | 0.00 | 32 | 1022.1 |
| 20260905044605 | 70 | 231 | 0.0 | 6.0 | 0.00 | 0.00 | 0.00 | 32 | 1022.0 |
| 20260905043106 | 71 | 0 | 0.0 | 3.0 | 0.00 | 0.00 | 0.00 | 31 | 1022.2 |
| 20260905041611 | 71 | 0 | 0.0 | 1.0 | 0.00 | 0.00 | 0.00 | 31 | 1022.1 |
| 20260905040105 | 71 | 0 | 0.0 | 1.0 | 0.00 | 0.00 | 0.00 | 31 | 1022.4 |
| 20260905034605 | 72 | 0 | 0.0 | 1.0 | 0.00 | 0.00 | 0.00 | 31 | 1022.5 |
| 20260905033106 | 72 | 0 | 0.0 | 3.0 | 0.00 | 0.00 | 0.00 | 31 | 1022.6 |
| 20260905031605 | 73 | 0 | 0.0 | 0.0 | 0.00 | 0.00 | 0.00 | 30 | 1022.4 |
| 20260905024623 | 74 | 0 | 0.0 | 3.0 | 0.00 | 0.00 | 0.00 | 28 | 1022.2 |
| 20260905023124 | 75 | 0 | 0.0 | 1.0 | 0.00 | 0.00 | 0.00 | 28 | 1022.1 |
| 20260905021610 | 75 | 0 | 0.0 | 1.0 | 0.00 | 0.00 | 0.00 | 28 | 1022.0 |
| 20260905020111 | 75 | 0 | 0.0 | 0.0 | 0.00 | 0.00 | 0.00 | 28 | 1021.9 |
| 20260905014616 | 76 | 0 | 0.0 | 1.0 | 0.00 | 0.00 | 0.00 | 27 | 1021.7 |
| 20260905013104 | 77 | 0 | 1.0 | 7.0 | 0.00 | 0.00 | 0.00 | 26 | 1021.5 |
| 20260905011621 | 78 | 0 | 0.0 | 7.0 | 0.00 | 0.00 | 0.00 | 25 | 1021.4 |
| 20260905010104 | 79 | 83 | 3.0 | 10.0 | 0.00 | 0.00 | 0.00 | 24 | 1021.3 |
| 20260905004607 | 80 | 91 | 4.0 | 9.0 | 0.00 | 0.00 | 0.00 | 23 | 1021.3 |
| 20260905003105 | 80 | 24 | 1.0 | 12.0 | 0.00 | 0.00 | 0.00 | 22 | 1021.3 |
| 20260905001609 | 81 | 30 | 1.0 | 5.0 | 0.00 | 0.00 | 0.00 | 19 | 1021.0 |
| 20260905000114 | 81 | 54 | 2.0 | 6.0 | 0.00 | 0.00 | 0.00 | 19 | 1021.1 |
| 20260904234612 | 81 | 50 | 1.0 | 8.0 | 0.00 | 0.00 | 0.00 | 19 | 1021.2 |
| 20260904233102 | 82 | 111 | 2.0 | 11.0 | 0.00 | 0.00 | 0.00 | 19 | 1021.2 |
| 20260904231603 | 82 | 101 | 4.0 | 8.0 | 0.00 | 0.00 | 0.00 | 19 | 1021.0 |
| 20260904230109 | 82 | 32 | 3.0 | 10.0 | 0.00 | 0.00 | 0.00 | 19 | 1020.8 |
| 20260904224616 | 83 | 63 | 2.0 | 9.0 | 0.00 | 0.00 | 0.00 | 19 | 1020.8 |
| 20260904223106 | 81 | 8 | 2.0 | 11.0 | 0.00 | 0.00 | 0.00 | 19 | 1020.8 |
| 20260904221608 | 82 | 359 | 2.0 | 7.0 | 0.00 | 0.00 | 0.00 | 19 | 1020.6 |
| 20260904220110 | 81 | 20 | 3.0 | 12.0 | 0.00 | 0.00 | 0.00 | 20 | 1020.8 |
| 20260904214607 | 83 | 53 | 3.0 | 11.0 | 0.00 | 0.00 | 0.00 | 19 | 1020.6 |
| 20260904213104 | 84 | 7 | 3.0 | 11.0 | 0.00 | 0.00 | 0.00 | 18 | 1020.6 |
| 20260904211604 | 84 | 33 | 4.0 | 16.0 | 0.00 | 0.00 | 0.00 | 18 | 1020.6 |
| 20260904210107 | 84 | 36 | 3.0 | 12.0 | 0.00 | 0.00 | 0.00 | 18 | 1020.7 |
| 20260904204608 | 84 | 83 | 6.0 | 13.0 | 0.00 | 0.00 | 0.00 | 18 | 1020.9 |
| 20260904203105 | 82 | 68 | 1.0 | 12.0 | 0.00 | 0.00 | 0.00 | 19 | 1021.2 |
| 20260904201636 | 81 | 56 | 5.0 | 11.0 | 0.00 | 0.00 | 0.00 | 19 | 1021.3 |
| 20260904200122 | 81 | 56 | 4.0 | 13.0 | 0.00 | 0.00 | 0.00 | 19 | 1021.5 |
| 20260904194613 | 82 | 117 | 4.0 | 16.0 | 0.00 | 0.00 | 0.00 | 19 | 1021.6 |
| 20260904193111 | 81 | 76 | 9.0 | 15.0 | 0.00 | 0.00 | 0.00 | 19 | 1021.7 |
| 20260904191603 | 82 | 160 | 5.0 | 14.0 | 0.00 | 0.00 | 0.00 | 19 | 1021.7 |
| 20260904190117 | 82 | 105 | 5.0 | 14.0 | 0.00 | 0.00 | 0.00 | 19 | 1021.8 |
| 20260904184605 | 82 | 24 | 3.0 | 14.0 | 0.00 | 0.00 | 0.00 | 20 | 1021.9 |
| 20260904183104 | 83 | 61 | 7.0 | 14.0 | 0.00 | 0.00 | 0.00 | 20 | 1022.1 |
| 20260904181607 | 83 | 103 | 2.0 | 9.0 | 0.00 | 0.00 | 0.00 | 20 | 1022.1 |
| 20260904180108 | 85 | 193 | 3.0 | 10.0 | 0.00 | 0.00 | 0.00 | 17 | 1022.3 |
| 20260904174608 | 82 | 94 | 2.0 | 9.0 | 0.00 | 0.00 | 0.00 | 18 | 1022.4 |
| 20260904173130 | 83 | 271 | 4.0 | 13.0 | 0.00 | 0.00 | 0.00 | 18 | 1022.4 |
| 20260904171611 | 82 | 285 | 3.0 | 7.0 | 0.00 | 0.00 | 0.00 | 19 | 1022.4 |
| 20260904170125 | 82 | 274 | 1.0 | 13.0 | 0.00 | 0.00 | 0.00 | 19 | 1022.2 |
| 20260904164609 | 81 | 265 | 3.0 | 12.0 | 0.00 | 0.00 | 0.00 | 19 | 1022.4 |
| 20260904163108 | 81 | 229 | 3.0 | 12.0 | 0.00 | 0.00 | 0.00 | 20 | 1022.1 |
| 20260904161606 | 80 | 240 | 5.0 | 17.0 | 0.00 | 0.00 | 0.00 | 20 | 1022.3 |
| 20260904160109 | 80 | 217 | 3.0 | 8.0 | 0.00 | 0.00 | 0.00 | 20 | 1022.2 |
| 20260904154606 | 80 | 304 | 2.0 | 12.0 | 0.00 | 0.00 | 0.00 | 20 | 1022.2 |
| 20260904153103 | 79 | 264 | 2.0 | 10.0 | 0.00 | 0.00 | 0.00 | 21 | 1022.1 |
| 20260904151616 | 79 | 235 | 1.0 | 8.0 | 0.00 | 0.00 | 0.00 | 22 | 1021.9 |
| 20260904150130 | 78 | 297 | 1.0 | 7.0 | 0.00 | 0.00 | 0.00 | 23 | 1021.9 |
| 20260904144605 | 76 | 236 | 5.0 | 13.0 | 0.00 | 0.00 | 0.00 | 23 | 1021.9 |
| 20260904143113 | 76 | 223 | 3.0 | 7.0 | 0.00 | 0.00 | 0.00 | 23 | 1021.8 |
| 20260904141617 | 75 | 229 | 1.0 | 8.0 | 0.00 | 0.00 | 0.00 | 24 | 1021.7 |
| 20260904140109 | 74 | 0 | 1.0 | 5.0 | 0.00 | 0.00 | 0.00 | 24 | 1021.5 |
| 20260904134625 | 72 | 255 | 1.0 | 9.0 | 0.00 | 0.00 | 0.00 | 25 | 1021.4 |
| 20260904133106 | 71 | 257 | 1.0 | 8.0 | 0.00 | 0.00 | 0.00 | 26 | 1021.0 |
| 20260904131605 | 68 | 310 | 1.0 | 4.0 | 0.00 | 0.00 | 0.00 | 27 | 1020.9 |
| 20260904130109 | 66 | 0 | 0.0 | 6.0 | 0.00 | 0.00 | 0.00 | 30 | 1020.7 |
| 20260904124604 | 63 | 281 | 0.0 | 3.0 | 0.00 | 0.00 | 0.00 | 32 | 1020.6 |
| 20260904123108 | 62 | 269 | 1.0 | 3.0 | 0.00 | 0.00 | 0.00 | 33 | 1020.6 |
| 20260904121602 | 63 | 0 | 2.0 | 4.0 | 0.00 | 0.00 | 0.00 | 32 | 1020.4 |
| 20260904120109 | 63 | 284 | 0.0 | 2.0 | 0.00 | 0.00 | 0.00 | 31 | 1020.2 |
| 20260904114605 | 63 | 222 | 0.0 | 4.0 | 0.00 | 0.00 | 0.00 | 31 | 1020.2 |
| 20260904113106 | 62 | 0 | 0.0 | 2.0 | 0.00 | 0.00 | 0.00 | 32 | 1020.2 |
| 20260904111607 | 63 | 0 | 1.0 | 4.0 | 0.00 | 0.00 | 0.00 | 31 | 1020.2 |
| 20260904110116 | 63 | 0 | 0.0 | 4.0 | 0.00 | 0.00 | 0.00 | 30 | 1020.2 |
| 20260904104608 | 63 | 223 | 1.0 | 5.0 | 0.00 | 0.00 | 0.00 | 30 | 1020.0 |
| 20260904103113 | 64 | 260 | 0.0 | 5.0 | 0.00 | 0.00 | 0.00 | 30 | 1019.9 |
| 20260904101603 | 65 | 236 | 0.0 | 3.0 | 0.00 | 0.00 | 0.00 | 29 | 1019.8 |
| 20260904100108 | 67 | 228 | 0.0 | 1.0 | 0.00 | 0.00 | 0.00 | 27 | 1019.7 |
| 20260904094607 | 68 | 0 | 0.0 | 6.0 | 0.00 | 0.00 | 0.00 | 26 | 1019.6 |